Regional Weather Roundup
Issued by NWS Grand Forks, ND

Home | Current Version | Previous Version | Text Only | Print | Product List | Glossary Off
Versions: 1 2 3 4 5 6 7 8 9 10 11 12 13 14 15 16 17 18 19 20 21 22 23 24 25 26 27 28 29 30 31 32 33 34 35 36 37 38 39 40 41 42 43 44 45 46 47 48 49 50

000
ASUS43 KFGF 220731
RWRFGF
PRAIRIE TO PINES  WEATHER ROUNDUP
NATIONAL WEATHER SERVICE EASTERN NORTH DAKOTA/GRAND FORKS ND
100 AM CST MON DEC 22 2014

 **SATELLITE DATA USED TO AUGMENT SKY COVER AT AUTOMATED STATIONS**
 *****  WEATHER ACROSS EASTERN NORTH DAKOTA  *****

CITY           SKY/WX    TMP DP  RH WIND       PRES   REMARKS
GRAND FORKS    CLOUDY    33  32  96 SE8       29.55S
GRAND FRKS AFB CLOUDY    32  32 100 SE6       29.54S FOG
GRAND FRKS NWS   N/A     32 N/A N/A SE12        N/A  WCI  23
DEVILS LAKE    CLOUDY    30  23  74 SE7       29.48F WCI  23
FARGO          CLOUDY    37  35  92 SE12      29.52F FOG
WAHPETON ARPT  CLOUDY    34  32  93 SE9       29.52F
$$

 ***** WEATHER ACROSS CENTRAL AND WESTERN NORTH DAKOTA  *****

CITY           SKY/WX    TMP DP  RH WIND       PRES   REMARKS
BISMARCK       CLOUDY    28  28 100 S5        29.45S FOG     WCI  23
MINOT          FOG       29  27  92 SE9       29.43F VSB 3/4 WCI  20
JAMESTOWN      CLOUDY    32  31  96 SE7       29.46F FOG
MINOT AFB      FRZ DRZL  29  29 100 SE10      29.43S VSB 3/4 WCI  20
GARRISON         N/A     29  28  96 SE9       29.42S WCI  20
WILLISTON      CLOUDY    33  30  88 SW5       29.41R
DICKINSON      CLOUDY    37  34  89 W14       29.38S
HETTINGER      CLOUDY    37  33  85 W17       29.43S
$$

 *****  OTHER AIRPORT OBSERVATIONS IN OUR AREA  *****

CITY           SKY/WX    TMP DP  RH WIND       PRES   REMARKS
WALHALLA         N/A     32  32 100 S9        29.55F FOG     WCI  24
GRAFTON AIRPOR NOT AVBL
VALLEY CITY AR FOG       32  32 100 SE7       29.48F VSB 3/4
CANDO          CLOUDY    28  28 100 SE7       29.50S FOG     WCI  21
CAVALIER APRT  CLOUDY    32  32 100 SE6       29.56S FOG
GWINNER        CLOUDY    36  36 100 E9        29.49F
ROLLA          FOG       27  27 100 SE8       29.49S VSB 1/2 WCI  18
 ***** THE ABOVE OBSERVATIONS ARE NON NWS ARE NOT QUALITY
       CONTROLLED AND MAY MIS-REPORT RAIN FOR SNOW...
$$

  *****  WEATHER ACROSS NORTHERN MINNESOTA  *****

CITY           SKY/WX    TMP DP  RH WIND       PRES   REMARKS
FLAG ISLAND    CLOUDY    34  30  86 SE8       29.62S
WARROAD        CLOUDY    34  28  80 SE6       29.61F
ROSEAU         CLOUDY    34  30  86 SE7       29.60S
HALLOCK        CLOUDY    34  32  93 CALM      29.57F
THF RVR FALLS  CLOUDY    34  34 100 E9        29.57F
BAUDETTE       CLOUDY    33  31  92 SE5       29.62F
WASKISH        CLOUDY    34  32  93 CALM      29.62S
CROOKSTON      CLOUDY    34  34 100 SE9       29.56F
STEPHEN NDAWN    N/A     34  32  93 SE8         N/A
GREENBUSH NDAW   N/A     34  32  93 SE1         N/A
$$
  *****  WEATHER ACROSS CENTRAL AND WEST MINNESOTA  *****

CITY           SKY/WX    TMP DP  RH WIND       PRES   REMARKS
FOSSTON        CLOUDY    34  30  86 SE7       29.57F
BEMIDJI        CLOUDY    33  32  99 SE8       29.60S FOG
PARK RAPIDS    CLOUDY    35  34  96 SE13      29.57F FOG
ELBOW LAKE     CLOUDY    35  35  99 SE15      29.54F FOG
WADENA         CLOUDY    34  34 100 SE10      29.57F FOG
DETROIT LAKES  CLOUDY    34  34 100 SE12      29.55F FOG
MOORHEAD       CLOUDY    37  37 100 SE9       29.54F FOG
FERGUS FALLS   CLOUDY    36  36 100 SE14      29.56F FOG
MORRIS MN      CLOUDY    36  36 100 SE17      29.53F FOG
STAPLES        CLOUDY    34  34 100 SE5       29.60F FOG
$$
  *****  WEATHER ELSEWHERE ACROSS MINNESOTA  *****

CITY           SKY/WX    TMP DP  RH WIND       PRES   REMARKS
DULUTH         FOG       34  33  96 SE10      29.70S VSB 1/4
INTRNTL FALLS  CLOUDY    33  31  92 SE7       29.66F FOG
ELY            CLOUDY    34  32  93 S7        29.70F FOG
CLOQUET        LGT SNOW  34  34 100 S6        29.70S
WHEATON        CLOUDY    34  32  93 SE13      29.54F FOG     WCI  25
BRAINERD       CLOUDY    35  34  96 SE8       29.64F FOG
HIBBING        CLOUDY    34  32  92 SE8       29.67F FOG
ALEXANDRIA     CLOUDY    35  34  96 SE15      29.57F FOG
SAINT CLOUD    CLOUDY    38  35  89 SE13      29.65F FOG
MINNEAPOLIS    CLOUDY    38  36  92 SE12      29.71F FOG
$$

  *****  WEATHER ACROSS SOUTH DAKOTA  *****

CITY           SKY/WX    TMP DP  RH WIND       PRES   REMARKS
SIOUX FALLS    LGT RAIN  40  38  93 S18       29.53F
BROOKINGS      NOT AVBL
WATERTOWN      CLOUDY    36  35  96 S16       29.46F
HURON          CLOUDY    37  34  89 S13       29.44S
SISSETON         N/A     34  34 100 S9        29.49F
ABERDEEN       CLOUDY    36  33  89 SE3       29.45F
MITCHELL       LGT RAIN  38  36  92 S13       29.47F
PIERRE         MIX PCPN  30  28  92 CALM      29.43R
MOBRIDGE       CLOUDY    29  28  96 CALM      29.41R FOG
RAPID CITY     CLOUDY    39  33  79 NW29G40   29.50R
$$

  *****  SOME WEATHER IN NEARBY STATES *****

CITY           SKY/WX    TMP DP  RH WIND       PRES   REMARKS
GLASGOW MT     CLOUDY    35  30  82 NW20G29   29.50R WCI  24
GREAT FALLS MT CLEAR     33  24  69 W14       29.70S WCI  23
CHEYENNE WY    MIX PCPN  31  24  75 NW18G31   29.65R WCI  19
SCOTTSBLUFF NE PTCLDY    36  30  79 NW17      29.61S
OMAHA NE       DRIZZLE   43  42  97 S18       29.63F FOG
DES MOINES IA  LGT RAIN  42  39  89 S15       29.73F FOG
DAVENPORT IA   CLOUDY    35  30  82 SE17G24   29.89F WCI  25
CHICAGO IL     CLOUDY    32  27  81 S9        29.98F WCI  24
EAU CLAIRE WI  CLOUDY    36  33  89 S14       29.79F
LA CROSSE WI   CLOUDY    38  34  85 SE10      29.83F
$$

  *****  SOME NATIONAL WEATHER *****

CITY           SKY/WX    TMP DP  RH WIND       PRES   REMARKS
LA GUARDIA NY  CLOUDY    36  30  79 NE5       30.32S
RALEIGH NC     DRIZZLE   38  33  82 NE10      30.19F
ATLANTA GA     DRIZZLE   47  44  90 E13       30.06S FOG
NEW ORLEANS LA MOCLDY    58  55  90 E5        29.91F FOG
OKLAHOMA CITY  CLOUDY    48  45  89 S13       29.60F
ALBUQUERQUE NM PTCLDY    34  28  79 E10       29.94R
SALT LAKE CITY CLOUDY    43  37  79 W3        30.04S
LOS ANGELES CA PTCLDY    60  55  83 CALM      30.06S
BOISE ID       LGT RAIN  39  39 100 CALM      30.09F FOG
SEATTLE WA     CLOUDY    50  46  86 SW10      30.09R
$$

*** WEATHER ACROSS MANITOBA...SASKATCHEWAN AND ONTARIO ***
                ***ONTARIO***

CITY           SKY/WX    TMP DP  RH WIND       PRES   REMARKS
GERALDTON      FLURRIES  34  32  93 S9        29.83F
THUNDER BAY    CLOUDY    36  34  93 S5        29.81S
SIOUX LOOKOUT  FRZ DRZL  30  30 100 S6        29.69  WCI  24
TORONTO        CLOUDY    32  21  64 S6        30.24
BIG TROUT LK   FLURRIES  28  28 100 SE6       29.73S WCI  22
PICKLE LAKE    NOT AVBL
DRYDEN         CLOUDY    30  30 100 S8        29.68R FOG     WCI  23
KENORA         FRZ DRZL  30  30 100 S9G17     29.64  FOG     WCI  22
$$
                *** MANITOBA***

CITY           SKY/WX    TMP DP  RH WIND       PRES   REMARKS
BRANDON        FOG       27  25  93 E10       29.52S VSB 5/8 WCI  17
DAUPHIN        FRZ RAIN  25  25 100 SE10      29.57R VSB 3/4 WCI  15
ISLAND LAKE    CLOUDY    28  27  93 CALM      29.67S
PILOT MOUND      N/A     28  28 100 CALM        N/A
THE PAS        CLOUDY    25  23  93 NE5       29.64  WCI  19
THOMPSON       FRZ DRZL  19  18  93 NE7       29.71  WCI  10
WINNIPEG       CLOUDY    30  30 100 SE8       29.62  FOG     WCI  23
LYNN LAKE      LGT SNOW  14  12  92 NE5       29.72S WCI   6
CHURCHILL      LGT SNOW  16  14  93 W3        29.81R FOG
GILLAM         FRZ DRZL  19  18  93 NE6       29.76R WCI  11
$$
                ***SASKATCHEWAN***

CITY           SKY/WX    TMP DP  RH WIND       PRES   REMARKS
ESTEVAN        FOG      N/A N/A N/A E9          N/A  VSB 1/4
KINDERSLEY     LGT SNOW  19  18  93 NW10      29.57  WCI   8
LLOYDMINSTER   LGT SNOW  19  18  93 NW6       29.57S WCI  11
PRINCE ALBERT  CLOUDY    23  21  93 E8        29.60  FOG     WCI  14
REGINA         CLOUDY    23  21  93 N7        29.47  WCI  15
YORKTON        FOG       25  23  93 E2        29.51R VSB 3/4
N. BATTLEFORD  CLOUDY    18  18 100 N5        29.61R WCI  11
LA RONGE       FRZ DRZL  19  18  93 NE8       29.66  FOG     WCI   9
SASKATOON      CLOUDY    23  23 100 N10       29.58  FOG     WCI  12
SWIFT CURRENT  LGT SNOW  21  19  93 MISG      29.52R
$$
NOTE: THESE ARE AUTOMATED STATIONS WITH LIMITED QUALITY CONTROL
      "FAIR" INDICATES FEW OR NO CLOUDS BELOW 12,000 FEET WITH NO
      SIGNIFICANT WEATHER AND/OR OBSTRUCTIONS TO VISIBILITY.
      SKY/WX - SKY CONDITION AND SIGNIFICANT WEATHER.
      TMP - AIR TEMPERATURE.    DP   - DEWPOINT TEMPERATURE.
      RH  - RELATIVE HUMIDITY.  PRES - PRESSURE.
      HX  - HEAT INDEX.         WCI  - WIND CHILL INDEX.
$



USA.gov is the U.S. government's official web portal to all federal, state and local government web resources and services.